Year,Month,Day,Hour,Minute,Value (Times are PST for temperature in C)
2011,11,11,00,00,6.20
2011,11,11,00,01,6.20
2011,11,11,00,02,6.20
2011,11,11,00,03,6.20
2011,11,11,00,04,6.20
2011,11,11,00,05,6.20
2011,11,11,00,06,6.20
2011,11,11,00,07,6.20
2011,11,11,00,08,6.20
2011,11,11,00,09,6.30
2011,11,11,00,10,6.30
2011,11,11,00,11,6.30
2011,11,11,00,12,6.30
2011,11,11,00,13,6.30
2011,11,11,00,14,6.30
2011,11,11,00,15,6.30
2011,11,11,00,16,6.30
2011,11,11,00,17,6.30
2011,11,11,00,18,6.30
2011,11,11,00,19,6.30
2011,11,11,00,20,6.30
2011,11,11,00,21,6.30
2011,11,11,00,22,6.30
2011,11,11,00,23,6.30
2011,11,11,00,24,6.30
2011,11,11,00,25,6.30
2011,11,11,00,26,6.30
2011,11,11,00,27,6.30
2011,11,11,00,28,6.30
2011,11,11,00,29,6.30
2011,11,11,00,30,6.30
2011,11,11,00,31,6.30
2011,11,11,00,32,6.30
2011,11,11,00,33,6.30
2011,11,11,00,34,6.30
2011,11,11,00,35,6.30
2011,11,11,00,36,6.30
2011,11,11,00,37,6.30
2011,11,11,00,38,6.30
2011,11,11,00,39,6.30
2011,11,11,00,40,6.30
2011,11,11,00,41,6.30
2011,11,11,00,42,6.30
2011,11,11,00,43,6.30
2011,11,11,00,44,6.30
2011,11,11,00,45,6.30
2011,11,11,00,46,6.30
2011,11,11,00,47,6.40
2011,11,11,00,48,6.40
2011,11,11,00,49,6.40
2011,11,11,00,50,6.40
2011,11,11,00,51,6.40
2011,11,11,00,52,6.40
2011,11,11,00,53,6.40
2011,11,11,00,54,6.40
2011,11,11,00,55,6.40
2011,11,11,00,56,6.40
2011,11,11,00,57,6.40
2011,11,11,00,58,6.40
2011,11,11,00,59,6.40
2011,11,11,01,00,6.40
2011,11,11,01,01,6.40
2011,11,11,01,02,6.40
2011,11,11,01,03,6.40
2011,11,11,01,04,6.40
2011,11,11,01,05,6.40
2011,11,11,01,06,6.40
2011,11,11,01,07,6.40
2011,11,11,01,08,6.40
2011,11,11,01,09,6.40
2011,11,11,01,10,6.40
2011,11,11,01,11,6.30
2011,11,11,01,12,6.40
2011,11,11,01,13,6.40
2011,11,11,01,14,6.30
2011,11,11,01,15,6.40
2011,11,11,01,16,6.30
2011,11,11,01,17,6.30
2011,11,11,01,18,6.30
2011,11,11,01,19,6.30
2011,11,11,01,20,6.30
2011,11,11,01,21,6.30
2011,11,11,01,22,6.30
2011,11,11,01,23,6.30
2011,11,11,01,24,6.30
2011,11,11,01,25,6.30
2011,11,11,01,26,6.30
2011,11,11,01,27,6.30
2011,11,11,01,28,6.30
2011,11,11,01,29,6.30
2011,11,11,01,30,6.30
2011,11,11,01,31,6.30
2011,11,11,01,32,6.30
2011,11,11,01,33,6.30
2011,11,11,01,34,6.30
2011,11,11,01,35,6.30
2011,11,11,01,36,6.30
2011,11,11,01,37,6.30
2011,11,11,01,38,6.30
2011,11,11,01,39,6.30
2011,11,11,01,40,6.30
2011,11,11,01,41,6.30
2011,11,11,01,42,6.30
2011,11,11,01,43,6.30
2011,11,11,01,44,6.30
2011,11,11,01,45,6.30
2011,11,11,01,46,6.30
2011,11,11,01,47,6.30
2011,11,11,01,48,6.30
2011,11,11,01,49,6.30
2011,11,11,01,50,6.30
2011,11,11,01,51,6.30
2011,11,11,01,52,6.30
2011,11,11,01,53,6.30
2011,11,11,01,54,6.30
2011,11,11,01,55,6.30
2011,11,11,01,56,6.30
2011,11,11,01,57,6.30
2011,11,11,01,58,6.30
2011,11,11,01,59,6.30
2011,11,11,02,00,6.30
2011,11,11,02,01,6.30
2011,11,11,02,02,6.30
2011,11,11,02,03,6.30
2011,11,11,02,04,6.30
2011,11,11,02,05,6.30
2011,11,11,02,06,6.30
2011,11,11,02,07,6.30
2011,11,11,02,08,6.30
2011,11,11,02,09,6.30
2011,11,11,02,10,6.30
2011,11,11,02,11,6.30
2011,11,11,02,12,6.30
2011,11,11,02,13,6.30
2011,11,11,02,14,6.20
2011,11,11,02,15,6.20
2011,11,11,02,16,6.20
2011,11,11,02,17,6.20
2011,11,11,02,18,6.20
2011,11,11,02,19,6.20
2011,11,11,02,20,6.20
2011,11,11,02,21,6.20
2011,11,11,02,22,6.20
2011,11,11,02,23,6.20
2011,11,11,02,24,6.10
2011,11,11,02,25,6.10
2011,11,11,02,26,6.10
2011,11,11,02,27,6.10
2011,11,11,02,28,6.10
2011,11,11,02,29,6.10
2011,11,11,02,30,6.10
2011,11,11,02,31,6.10
2011,11,11,02,32,6.00
2011,11,11,02,33,6.00
2011,11,11,02,34,6.00
2011,11,11,02,35,6.00
2011,11,11,02,36,5.90
2011,11,11,02,37,5.90
2011,11,11,02,38,5.90
2011,11,11,02,39,5.90
2011,11,11,02,40,5.90
2011,11,11,02,41,5.90
2011,11,11,02,42,5.90
2011,11,11,02,43,5.90
2011,11,11,02,44,5.80
2011,11,11,02,45,5.80
2011,11,11,02,46,5.80
2011,11,11,02,47,5.80
2011,11,11,02,48,5.80
2011,11,11,02,49,5.80
2011,11,11,02,50,5.80
2011,11,11,02,51,5.80
2011,11,11,02,52,5.90
2011,11,11,02,53,5.90
2011,11,11,02,54,5.90
2011,11,11,02,55,6.00
2011,11,11,02,56,6.00
2011,11,11,02,57,6.00
2011,11,11,02,58,6.00
2011,11,11,02,59,6.10
2011,11,11,03,00,6.10
2011,11,11,03,01,6.10
2011,11,11,03,02,6.10
2011,11,11,03,06,6.10
2011,11,11,03,07,6.20
2011,11,11,03,08,6.20
2011,11,11,03,09,6.20
2011,11,11,03,10,6.20
2011,11,11,03,11,6.20
2011,11,11,03,12,6.20
2011,11,11,03,13,6.10
2011,11,11,03,14,6.10
2011,11,11,03,15,6.10
2011,11,11,03,16,6.10
2011,11,11,03,17,6.10
2011,11,11,03,18,6.00
2011,11,11,03,19,6.00
2011,11,11,03,20,6.00
2011,11,11,03,21,6.00
2011,11,11,03,22,5.90
2011,11,11,03,23,5.90
2011,11,11,03,24,5.90
2011,11,11,03,25,5.90
2011,11,11,03,26,5.90
2011,11,11,03,27,5.90
2011,11,11,03,28,5.90
2011,11,11,03,29,5.90
2011,11,11,03,30,5.90
2011,11,11,03,31,5.90
2011,11,11,03,32,5.90
2011,11,11,03,33,5.90
2011,11,11,03,34,5.90
2011,11,11,03,35,5.90
2011,11,11,03,36,5.90
2011,11,11,03,37,5.90
2011,11,11,03,38,6.00
2011,11,11,03,39,6.00
2011,11,11,03,40,6.00
2011,11,11,03,41,6.10
2011,11,11,03,42,6.10
2011,11,11,03,43,6.10
2011,11,11,03,44,6.00
2011,11,11,03,45,6.00
2011,11,11,03,46,6.00
2011,11,11,03,47,6.00
2011,11,11,03,48,6.00
2011,11,11,03,49,6.00
2011,11,11,03,50,6.00
2011,11,11,03,51,6.00
2011,11,11,03,52,6.00
2011,11,11,03,53,6.00
2011,11,11,03,54,6.00
2011,11,11,03,55,6.00
2011,11,11,03,56,6.00
2011,11,11,03,57,6.00
2011,11,11,03,58,6.10
2011,11,11,03,59,6.10
2011,11,11,04,00,6.10
2011,11,11,04,01,6.10
2011,11,11,04,02,6.20
2011,11,11,04,03,6.20
2011,11,11,04,04,6.20
2011,11,11,04,05,6.30
2011,11,11,04,06,6.30
2011,11,11,04,07,6.30
2011,11,11,04,08,6.40
2011,11,11,04,09,6.60
2011,11,11,04,10,6.80
2011,11,11,04,11,7.00
2011,11,11,04,12,7.20
2011,11,11,04,13,7.30
2011,11,11,04,14,7.40
2011,11,11,04,15,7.50
2011,11,11,04,16,7.50
2011,11,11,04,17,7.60
2011,11,11,04,18,7.60
2011,11,11,04,19,7.60
2011,11,11,04,20,7.60
2011,11,11,04,21,7.60
2011,11,11,04,22,7.50
2011,11,11,04,23,7.50
2011,11,11,04,24,7.40
2011,11,11,04,25,7.40
2011,11,11,04,26,7.50
2011,11,11,04,27,7.50
2011,11,11,04,28,7.50
2011,11,11,04,29,7.50
2011,11,11,04,30,7.50
2011,11,11,04,31,7.40
2011,11,11,04,32,7.40
2011,11,11,04,33,7.40
2011,11,11,04,34,7.40
2011,11,11,04,35,7.40
2011,11,11,04,36,7.40
2011,11,11,04,37,7.30
2011,11,11,04,38,7.30
2011,11,11,04,39,7.30
2011,11,11,04,40,7.30
2011,11,11,04,41,7.30
2011,11,11,04,42,7.30
2011,11,11,04,43,7.30
2011,11,11,04,44,7.30
2011,11,11,04,45,7.30
2011,11,11,04,46,7.30
2011,11,11,04,47,7.20
2011,11,11,04,48,7.20
2011,11,11,04,49,7.20
2011,11,11,04,50,7.20
2011,11,11,04,51,7.20
2011,11,11,04,52,7.20
2011,11,11,04,53,7.20
2011,11,11,04,54,7.10
2011,11,11,04,55,7.10
2011,11,11,04,56,7.10
2011,11,11,04,57,7.10
2011,11,11,04,58,7.10
2011,11,11,04,59,7.10
2011,11,11,05,00,7.10
2011,11,11,05,01,7.10
2011,11,11,05,02,7.10
2011,11,11,05,03,7.10
2011,11,11,05,04,7.10
2011,11,11,05,05,7.10
2011,11,11,05,06,7.10
2011,11,11,05,07,7.10
2011,11,11,05,08,7.10
2011,11,11,05,09,7.10
2011,11,11,05,10,7.10
2011,11,11,05,11,7.10
2011,11,11,05,12,7.10
2011,11,11,05,13,7.10
2011,11,11,05,14,7.10
2011,11,11,05,15,7.10
2011,11,11,05,16,7.10
2011,11,11,05,17,7.10
2011,11,11,05,18,7.00
2011,11,11,05,19,7.00
2011,11,11,05,20,7.00
2011,11,11,05,21,7.00
2011,11,11,05,22,7.00
2011,11,11,05,23,7.00
2011,11,11,05,24,7.00
2011,11,11,05,25,7.00
2011,11,11,05,26,7.00
2011,11,11,05,27,7.00
2011,11,11,05,28,6.90
2011,11,11,05,29,6.90
2011,11,11,05,30,6.90
2011,11,11,05,31,6.90
2011,11,11,05,32,6.90
2011,11,11,05,33,6.90
2011,11,11,05,34,6.90
2011,11,11,05,35,6.90
2011,11,11,05,36,6.90
2011,11,11,05,37,6.90
2011,11,11,05,38,6.90
2011,11,11,05,39,7.00
2011,11,11,05,40,7.00
2011,11,11,05,41,7.00
2011,11,11,05,42,7.00
2011,11,11,05,43,7.00
2011,11,11,05,44,7.00
2011,11,11,05,45,7.00
2011,11,11,05,46,7.00
2011,11,11,05,47,7.00
2011,11,11,05,48,7.00
2011,11,11,05,49,7.00
2011,11,11,05,50,7.00
2011,11,11,05,51,7.00
2011,11,11,05,52,7.00
2011,11,11,05,53,7.00
2011,11,11,05,54,7.00
2011,11,11,05,55,7.00
2011,11,11,05,56,7.00
2011,11,11,05,57,7.10
2011,11,11,05,58,7.10
2011,11,11,05,59,7.10
2011,11,11,06,00,7.10
2011,11,11,06,01,7.10
2011,11,11,06,02,7.20
2011,11,11,06,03,7.20
2011,11,11,06,04,7.20
2011,11,11,06,05,7.20
2011,11,11,06,06,7.20
2011,11,11,06,07,7.20
2011,11,11,06,08,7.20
2011,11,11,06,09,7.20
2011,11,11,06,10,7.20
2011,11,11,06,11,7.20
2011,11,11,06,12,7.20
2011,11,11,06,13,7.20
2011,11,11,06,14,7.20
2011,11,11,06,15,7.20
2011,11,11,06,16,7.20
2011,11,11,06,17,7.20
2011,11,11,06,18,7.20
2011,11,11,06,19,7.20
2011,11,11,06,20,7.20
2011,11,11,06,21,7.20
2011,11,11,06,22,7.20
2011,11,11,06,23,7.20
2011,11,11,06,24,7.20
2011,11,11,06,25,7.20
2011,11,11,06,26,7.20
2011,11,11,06,27,7.20
2011,11,11,06,28,7.20
2011,11,11,06,29,7.20
2011,11,11,06,30,7.20
2011,11,11,06,31,7.20
2011,11,11,06,32,7.20
2011,11,11,06,33,7.20
2011,11,11,06,34,7.20
2011,11,11,06,35,7.20
2011,11,11,06,36,7.20
2011,11,11,06,37,7.20
2011,11,11,06,38,7.20
2011,11,11,06,39,7.20
2011,11,11,06,40,7.20
2011,11,11,06,41,7.20
2011,11,11,06,42,7.20
2011,11,11,06,43,7.20
2011,11,11,06,44,7.20
2011,11,11,06,45,7.20
2011,11,11,06,46,7.20
2011,11,11,06,47,7.20
2011,11,11,06,48,7.20
2011,11,11,06,49,7.20
2011,11,11,06,50,7.20
2011,11,11,06,51,7.10
2011,11,11,06,52,7.10
2011,11,11,06,53,7.10
2011,11,11,06,54,7.20
2011,11,11,06,55,7.20
2011,11,11,06,56,7.20
2011,11,11,06,57,7.20
2011,11,11,06,58,7.20
2011,11,11,06,59,7.20
2011,11,11,07,00,7.20
2011,11,11,07,01,7.10
2011,11,11,07,02,7.10
2011,11,11,07,03,7.10
2011,11,11,07,04,7.10
2011,11,11,07,05,7.10
2011,11,11,07,06,7.10
2011,11,11,07,07,7.10
2011,11,11,07,08,7.10
2011,11,11,07,09,7.10
2011,11,11,07,10,7.10
2011,11,11,07,11,7.20
2011,11,11,07,12,7.20
2011,11,11,07,13,7.20
2011,11,11,07,14,7.20
2011,11,11,07,15,7.20
2011,11,11,07,16,7.30
2011,11,11,07,17,7.30
2011,11,11,07,18,7.30
2011,11,11,07,19,7.30
2011,11,11,07,20,7.30
2011,11,11,07,21,7.30
2011,11,11,07,22,7.30
2011,11,11,07,23,7.30
2011,11,11,07,24,7.30
2011,11,11,07,25,7.30
2011,11,11,07,26,7.30
2011,11,11,07,27,7.20
2011,11,11,07,28,7.20
2011,11,11,07,29,7.20
2011,11,11,07,30,7.20
2011,11,11,07,31,7.20
2011,11,11,07,32,7.20
2011,11,11,07,33,7.10
2011,11,11,07,34,7.10
2011,11,11,07,35,7.10
2011,11,11,07,36,7.10
2011,11,11,07,37,7.10
2011,11,11,07,38,7.10
2011,11,11,07,39,7.10
2011,11,11,07,40,7.10
2011,11,11,07,41,7.10
2011,11,11,07,42,7.10
2011,11,11,07,43,7.10
2011,11,11,07,44,7.10
2011,11,11,07,45,7.10
2011,11,11,07,46,7.10
2011,11,11,07,47,7.10
2011,11,11,07,48,7.10
2011,11,11,07,49,7.10
2011,11,11,07,50,7.10
2011,11,11,07,51,7.10
2011,11,11,07,52,7.10
2011,11,11,07,53,7.10
2011,11,11,07,54,7.10
2011,11,11,07,55,7.10
2011,11,11,07,56,7.10
2011,11,11,07,57,7.10
2011,11,11,07,58,7.10
2011,11,11,07,59,7.10
2011,11,11,08,00,7.10
2011,11,11,08,01,7.10
2011,11,11,08,02,7.10
2011,11,11,08,03,7.10
2011,11,11,08,04,7.10
2011,11,11,08,05,7.10
2011,11,11,08,06,7.10
2011,11,11,08,07,7.10
2011,11,11,08,08,7.10
2011,11,11,08,09,7.20
2011,11,11,08,10,7.20
2011,11,11,08,11,7.20
2011,11,11,08,12,7.20
2011,11,11,08,13,7.20
2011,11,11,08,14,7.20
2011,11,11,08,15,7.10
2011,11,11,08,16,7.20
2011,11,11,08,17,7.10
2011,11,11,08,18,7.10
2011,11,11,08,19,7.10
2011,11,11,08,20,7.10
2011,11,11,08,21,7.10
2011,11,11,08,22,7.10
2011,11,11,08,23,7.10
2011,11,11,08,24,7.10
2011,11,11,08,25,7.10
2011,11,11,08,26,7.10
2011,11,11,08,27,7.10
2011,11,11,08,28,7.10
2011,11,11,08,29,7.10
2011,11,11,08,30,7.10
2011,11,11,08,31,7.10
2011,11,11,08,32,7.10
2011,11,11,08,33,7.10
2011,11,11,08,34,7.10
2011,11,11,08,35,7.00
2011,11,11,08,36,7.00
2011,11,11,08,37,7.00
2011,11,11,08,38,7.00
2011,11,11,08,39,7.00
2011,11,11,08,40,7.10
2011,11,11,08,41,7.10
2011,11,11,08,42,7.10
2011,11,11,08,43,7.10
2011,11,11,08,44,7.10
2011,11,11,08,45,7.20
2011,11,11,08,46,7.20
2011,11,11,08,47,7.20
2011,11,11,08,48,7.20
2011,11,11,08,49,7.20
2011,11,11,08,50,7.20
2011,11,11,08,51,7.20
2011,11,11,08,52,7.20
2011,11,11,08,53,7.20
2011,11,11,08,54,7.20
2011,11,11,08,55,7.20
2011,11,11,08,56,7.20
2011,11,11,08,57,7.20
2011,11,11,08,58,7.20
2011,11,11,08,59,7.20
2011,11,11,09,00,7.20
2011,11,11,09,01,7.20
2011,11,11,09,02,7.20
2011,11,11,09,03,7.20
2011,11,11,09,04,7.20
2011,11,11,09,05,7.20
2011,11,11,09,06,7.20
2011,11,11,09,07,7.20
2011,11,11,09,08,7.20
2011,11,11,09,09,7.20
2011,11,11,09,10,7.20
2011,11,11,09,11,7.20
2011,11,11,09,12,7.20
2011,11,11,09,13,7.20
2011,11,11,09,14,7.20
2011,11,11,09,15,7.20
2011,11,11,09,16,7.20
2011,11,11,09,17,7.20
2011,11,11,09,18,7.20
2011,11,11,09,19,7.20
2011,11,11,09,20,7.20
2011,11,11,09,21,7.20
2011,11,11,09,22,7.20
2011,11,11,09,23,7.20
2011,11,11,09,24,7.20
2011,11,11,09,25,7.20
2011,11,11,09,26,7.20
2011,11,11,09,27,7.20
2011,11,11,09,28,7.20
2011,11,11,09,29,7.20
2011,11,11,09,30,7.30
2011,11,11,09,31,7.30
2011,11,11,09,32,7.30
2011,11,11,09,33,7.30
2011,11,11,09,34,7.40
2011,11,11,09,35,7.40
2011,11,11,09,36,7.40
2011,11,11,09,37,7.50
2011,11,11,09,38,7.60
2011,11,11,09,39,7.60
2011,11,11,09,40,7.70
2011,11,11,09,41,7.80
2011,11,11,09,42,7.90
2011,11,11,09,43,8.10
2011,11,11,09,44,8.20
2011,11,11,09,45,8.20
2011,11,11,09,46,8.20
2011,11,11,09,47,8.20
2011,11,11,09,48,8.30
2011,11,11,09,49,8.30
2011,11,11,09,50,8.30
2011,11,11,09,51,8.40
2011,11,11,09,52,8.40
2011,11,11,09,53,8.30
2011,11,11,09,54,8.30
2011,11,11,09,55,8.30
2011,11,11,09,56,8.30
2011,11,11,09,57,8.30
2011,11,11,09,58,8.40
2011,11,11,09,59,8.40
2011,11,11,10,00,8.60
2011,11,11,10,01,8.70
2011,11,11,10,02,8.80
2011,11,11,10,03,8.80
2011,11,11,10,04,9.00
2011,11,11,10,05,9.10
2011,11,11,10,06,9.20
2011,11,11,10,07,9.30
2011,11,11,10,08,9.30
2011,11,11,10,09,9.40
2011,11,11,10,10,9.50
2011,11,11,10,11,9.60
2011,11,11,10,12,9.60
2011,11,11,10,13,9.70
2011,11,11,10,14,9.70
2011,11,11,10,15,9.70
2011,11,11,10,16,9.70
2011,11,11,10,17,9.70
2011,11,11,10,18,9.70
2011,11,11,10,19,9.60
2011,11,11,10,20,9.60
2011,11,11,10,21,9.70
2011,11,11,10,22,9.80
2011,11,11,10,23,9.80
2011,11,11,10,24,9.80
2011,11,11,10,25,9.90
2011,11,11,10,26,9.90
2011,11,11,10,27,9.90
2011,11,11,10,28,9.90
2011,11,11,10,29,9.90
2011,11,11,10,30,10.00
2011,11,11,10,31,10.00
2011,11,11,10,32,9.90
2011,11,11,10,33,9.90
2011,11,11,10,34,9.90
2011,11,11,10,35,9.90
2011,11,11,10,36,9.90
2011,11,11,10,37,10.00
2011,11,11,10,38,10.00
2011,11,11,10,39,10.10
2011,11,11,10,40,10.10
2011,11,11,10,41,10.10
2011,11,11,10,42,10.10
2011,11,11,10,43,10.10
2011,11,11,10,44,10.10
2011,11,11,10,45,10.10
2011,11,11,10,46,10.20
2011,11,11,10,47,10.20
2011,11,11,10,48,10.30
2011,11,11,10,49,10.30
2011,11,11,10,50,10.30
2011,11,11,10,51,10.30
2011,11,11,10,52,10.30
2011,11,11,10,53,10.20
2011,11,11,10,54,10.20
2011,11,11,10,55,10.20
2011,11,11,10,56,10.20
2011,11,11,10,57,10.30
2011,11,11,10,58,10.30
2011,11,11,10,59,10.40
2011,11,11,11,00,10.40
2011,11,11,11,01,10.50
2011,11,11,11,02,10.50
2011,11,11,11,03,10.60
2011,11,11,11,04,10.70
2011,11,11,11,05,10.80
2011,11,11,11,06,10.80
2011,11,11,11,07,10.80
2011,11,11,11,08,10.90
2011,11,11,11,09,10.90
2011,11,11,11,10,10.90
2011,11,11,11,11,10.90
2011,11,11,11,12,10.90
2011,11,11,11,13,10.90
2011,11,11,11,14,10.90
2011,11,11,11,15,10.90
2011,11,11,11,16,10.90
2011,11,11,11,17,11.00
2011,11,11,11,18,11.00
2011,11,11,11,19,11.10
2011,11,11,11,20,11.10
2011,11,11,11,21,11.20
2011,11,11,11,22,11.30
2011,11,11,11,23,11.40
2011,11,11,11,24,11.50
2011,11,11,11,25,11.60
2011,11,11,11,26,11.60
2011,11,11,11,27,11.70
2011,11,11,11,28,11.80
2011,11,11,11,29,11.80
2011,11,11,11,30,11.80
2011,11,11,11,31,11.80
2011,11,11,11,32,11.80
2011,11,11,11,33,11.80
2011,11,11,11,34,11.90
2011,11,11,11,35,11.90
2011,11,11,11,36,12.00
2011,11,11,11,37,12.00
2011,11,11,11,38,12.00
2011,11,11,11,39,12.00
2011,11,11,11,40,11.90
2011,11,11,11,41,11.80
2011,11,11,11,42,11.80
2011,11,11,11,43,11.80
2011,11,11,11,44,11.80
2011,11,11,11,45,11.80
2011,11,11,11,46,11.80
2011,11,11,11,47,11.90
2011,11,11,11,48,12.00
2011,11,11,11,49,12.10
2011,11,11,11,50,12.20
2011,11,11,11,51,12.20
2011,11,11,11,52,12.30
2011,11,11,11,53,12.30
2011,11,11,11,54,12.30
2011,11,11,11,55,12.30
2011,11,11,11,56,12.30
2011,11,11,11,57,12.30
2011,11,11,11,58,12.30
2011,11,11,11,59,12.30
2011,11,11,12,00,12.30
2011,11,11,12,01,12.40
2011,11,11,12,02,12.40
2011,11,11,12,03,12.40
2011,11,11,12,04,12.40
2011,11,11,12,05,12.30
2011,11,11,12,06,12.30
2011,11,11,12,07,12.20
2011,11,11,12,08,12.10
2011,11,11,12,09,12.00
2011,11,11,12,10,11.90
2011,11,11,12,11,11.80
2011,11,11,12,12,11.80
2011,11,11,12,13,11.70
2011,11,11,12,14,11.60
2011,11,11,12,15,11.50
2011,11,11,12,16,11.50
2011,11,11,12,17,11.50
2011,11,11,12,18,11.60
2011,11,11,12,19,11.60
2011,11,11,12,20,11.70
2011,11,11,12,21,11.80
2011,11,11,12,22,11.90
2011,11,11,12,23,12.10
2011,11,11,12,24,12.20
2011,11,11,12,25,12.20
2011,11,11,12,26,12.20
2011,11,11,12,27,12.30
2011,11,11,12,28,12.20
2011,11,11,12,29,12.20
2011,11,11,12,30,12.20
2011,11,11,12,31,12.20
2011,11,11,12,32,12.30
2011,11,11,12,33,12.30
2011,11,11,12,34,12.30
2011,11,11,12,35,12.30
2011,11,11,12,36,12.40
2011,11,11,12,37,12.40
2011,11,11,12,38,12.30
2011,11,11,12,39,12.30
2011,11,11,12,40,12.30
2011,11,11,12,41,12.30
2011,11,11,12,42,12.30
2011,11,11,12,43,12.30
2011,11,11,12,44,12.30
2011,11,11,12,45,12.40
2011,11,11,12,46,12.40
2011,11,11,12,47,12.40
2011,11,11,12,48,12.40
2011,11,11,12,49,12.40
2011,11,11,12,50,12.30
2011,11,11,12,51,12.30
2011,11,11,12,52,12.30
2011,11,11,12,53,12.30
2011,11,11,12,54,12.30
2011,11,11,12,55,12.20
2011,11,11,12,56,12.20
2011,11,11,12,57,12.10
2011,11,11,12,58,12.00
2011,11,11,12,59,12.00
2011,11,11,13,00,11.90
2011,11,11,13,01,11.90
2011,11,11,13,02,11.90
2011,11,11,13,03,11.90
2011,11,11,13,04,11.90
2011,11,11,13,05,12.00
2011,11,11,13,06,12.00
2011,11,11,13,07,12.00
2011,11,11,13,08,12.00
2011,11,11,13,09,12.00
2011,11,11,13,10,12.00
2011,11,11,13,11,11.90
2011,11,11,13,12,11.90
2011,11,11,13,13,11.90
2011,11,11,13,14,11.90
2011,11,11,13,15,11.90
2011,11,11,13,16,11.80
2011,11,11,13,17,11.70
2011,11,11,13,18,11.40
2011,11,11,13,19,11.00
2011,11,11,13,20,10.50
2011,11,11,13,21,10.00
2011,11,11,13,22,9.60
2011,11,11,13,23,9.10
2011,11,11,13,24,8.70
2011,11,11,13,25,8.30
2011,11,11,13,26,8.00
2011,11,11,13,27,7.60
2011,11,11,13,28,7.30
2011,11,11,13,29,7.10
2011,11,11,13,30,6.90
2011,11,11,13,31,6.60
2011,11,11,13,32,6.40
2011,11,11,13,33,6.20
2011,11,11,13,34,5.90
2011,11,11,13,35,5.60
2011,11,11,13,36,5.40
2011,11,11,13,37,5.30
2011,11,11,13,38,5.10
2011,11,11,13,39,5.10
2011,11,11,13,40,5.00
2011,11,11,13,41,4.90
2011,11,11,13,42,4.90
2011,11,11,13,43,4.80
2011,11,11,13,44,4.70
2011,11,11,13,45,4.70
2011,11,11,13,46,4.60
2011,11,11,13,47,4.60
2011,11,11,13,48,4.50
2011,11,11,13,49,4.40
2011,11,11,13,50,4.40
2011,11,11,13,51,4.40
2011,11,11,13,52,4.30
2011,11,11,13,53,4.30
2011,11,11,13,54,4.20
2011,11,11,13,55,4.20
2011,11,11,13,56,4.20
2011,11,11,13,57,4.20
2011,11,11,13,58,4.20
2011,11,11,13,59,4.20
2011,11,11,14,00,4.20
2011,11,11,14,01,4.20
2011,11,11,14,02,4.20
2011,11,11,14,03,4.10
2011,11,11,14,04,4.10
2011,11,11,14,05,4.10
2011,11,11,14,06,4.10
2011,11,11,14,07,4.10
2011,11,11,14,08,4.10
2011,11,11,14,09,4.10
2011,11,11,14,10,4.10
2011,11,11,14,11,4.10
2011,11,11,14,12,4.10
2011,11,11,14,13,4.00
2011,11,11,14,14,4.00
2011,11,11,14,15,4.00
2011,11,11,14,16,3.90
2011,11,11,14,17,3.90
2011,11,11,14,18,3.90
2011,11,11,14,19,3.80
2011,11,11,14,20,3.80
2011,11,11,14,21,3.80
2011,11,11,14,22,3.80
2011,11,11,14,23,3.80
2011,11,11,14,24,3.70
2011,11,11,14,25,3.70
2011,11,11,14,26,3.70
2011,11,11,14,27,3.70
2011,11,11,14,28,3.70
2011,11,11,14,29,3.70
2011,11,11,14,30,3.70
2011,11,11,14,31,3.70
2011,11,11,14,32,3.70
2011,11,11,14,33,3.80
2011,11,11,14,34,3.80
2011,11,11,14,35,3.70
2011,11,11,14,36,3.70
2011,11,11,14,37,3.70
2011,11,11,14,38,3.70
2011,11,11,14,39,3.70
2011,11,11,14,40,3.60
2011,11,11,14,41,3.60
2011,11,11,14,42,3.60
2011,11,11,14,43,3.60
2011,11,11,14,44,3.60
2011,11,11,14,45,3.60
2011,11,11,14,46,3.60
2011,11,11,14,47,3.60
2011,11,11,14,48,3.60
2011,11,11,14,49,3.50
2011,11,11,14,50,3.50
2011,11,11,14,51,3.50
2011,11,11,14,52,3.50
2011,11,11,14,53,3.50
2011,11,11,14,54,3.50
2011,11,11,14,55,3.40
2011,11,11,14,56,3.40
2011,11,11,14,57,3.40
2011,11,11,14,58,3.40
2011,11,11,14,59,3.40
2011,11,11,15,00,3.40
2011,11,11,15,01,3.40
2011,11,11,15,02,3.40
2011,11,11,15,03,3.40
2011,11,11,15,04,3.40
2011,11,11,15,05,3.40
2011,11,11,15,06,3.50
2011,11,11,15,07,3.50
2011,11,11,15,08,3.50
2011,11,11,15,09,3.50
2011,11,11,15,10,3.50
2011,11,11,15,11,3.50
2011,11,11,15,12,3.60
2011,11,11,15,13,3.60
2011,11,11,15,14,3.60
2011,11,11,15,15,3.70
2011,11,11,15,16,3.70
2011,11,11,15,17,3.80
2011,11,11,15,18,3.80
2011,11,11,15,19,3.90
2011,11,11,15,20,3.90
2011,11,11,15,21,3.90
2011,11,11,15,22,4.00
2011,11,11,15,23,4.00
2011,11,11,15,24,3.90
2011,11,11,15,25,3.90
2011,11,11,15,26,3.90
2011,11,11,15,27,3.90
2011,11,11,15,28,3.90
2011,11,11,15,29,3.80
2011,11,11,15,30,3.80
2011,11,11,15,31,3.80
2011,11,11,15,32,3.80
2011,11,11,15,33,3.80
2011,11,11,15,34,3.80
2011,11,11,15,35,3.70
2011,11,11,15,36,3.70
2011,11,11,15,37,3.70
2011,11,11,15,38,3.70
2011,11,11,15,39,3.70
2011,11,11,15,40,3.70
2011,11,11,15,41,3.70
2011,11,11,15,42,3.70
2011,11,11,15,43,3.70
2011,11,11,15,44,3.70
2011,11,11,15,45,3.70
2011,11,11,15,46,3.70
2011,11,11,15,47,3.70
2011,11,11,15,48,3.70
2011,11,11,15,49,3.70
2011,11,11,15,50,3.70
2011,11,11,15,51,3.70
2011,11,11,15,52,3.70
2011,11,11,15,53,3.60
2011,11,11,15,54,3.60
2011,11,11,15,55,3.60
2011,11,11,15,56,3.60
2011,11,11,15,57,3.60
2011,11,11,15,58,3.60
2011,11,11,15,59,3.50
2011,11,11,16,00,3.50
2011,11,11,16,01,3.50
2011,11,11,16,02,3.50
2011,11,11,16,03,3.50
2011,11,11,16,04,3.40
2011,11,11,16,05,3.40
2011,11,11,16,06,3.40
2011,11,11,16,07,3.40
2011,11,11,16,08,3.40
2011,11,11,16,09,3.40
2011,11,11,16,10,3.40
2011,11,11,16,11,3.40
2011,11,11,16,12,3.40
2011,11,11,16,13,3.40
2011,11,11,16,14,3.40
2011,11,11,16,15,3.40
2011,11,11,16,16,3.40
2011,11,11,16,17,3.40
2011,11,11,16,18,3.40
2011,11,11,16,19,3.30
2011,11,11,16,20,3.30
2011,11,11,16,21,3.30
2011,11,11,16,22,3.30
2011,11,11,16,23,3.30
2011,11,11,16,24,3.30
2011,11,11,16,25,3.30
2011,11,11,16,26,3.30
2011,11,11,16,27,3.30
2011,11,11,16,28,3.30
2011,11,11,16,29,3.30
2011,11,11,16,30,3.30
2011,11,11,16,31,3.20
2011,11,11,16,32,3.20
2011,11,11,16,33,3.20
2011,11,11,16,34,3.20
2011,11,11,16,35,3.20
2011,11,11,16,36,3.20
2011,11,11,16,37,3.20
2011,11,11,16,38,3.20
2011,11,11,16,39,3.20
2011,11,11,16,40,3.20
2011,11,11,16,41,3.20
2011,11,11,16,42,3.20
2011,11,11,16,43,3.20
2011,11,11,16,44,3.20
2011,11,11,16,45,3.20
2011,11,11,16,46,3.20
2011,11,11,16,47,3.10
2011,11,11,16,48,3.10
2011,11,11,16,49,3.10
2011,11,11,16,50,3.10
2011,11,11,16,51,3.10
2011,11,11,16,52,3.00
2011,11,11,16,53,3.00
2011,11,11,16,54,2.90
2011,11,11,16,55,2.90
2011,11,11,16,56,2.90
2011,11,11,16,57,2.90
2011,11,11,16,58,2.80
2011,11,11,16,59,2.80
2011,11,11,17,00,2.80
2011,11,11,17,01,2.80
2011,11,11,17,02,2.70
2011,11,11,17,03,2.70
2011,11,11,17,04,2.70
2011,11,11,17,05,2.70
2011,11,11,17,06,2.70
2011,11,11,17,07,2.70
2011,11,11,17,08,2.60
2011,11,11,17,09,2.60
2011,11,11,17,10,2.60
2011,11,11,17,11,2.60
2011,11,11,17,12,2.60
2011,11,11,17,13,2.60
2011,11,11,17,14,2.60
2011,11,11,17,15,2.60
2011,11,11,17,16,2.60
2011,11,11,17,17,2.60
2011,11,11,17,18,2.50
2011,11,11,17,19,2.50
2011,11,11,17,20,2.60
2011,11,11,17,21,2.60
2011,11,11,17,22,2.50
2011,11,11,17,23,2.50
2011,11,11,17,24,2.50
2011,11,11,17,25,2.50
2011,11,11,17,26,2.50
2011,11,11,17,27,2.50
2011,11,11,17,28,2.50
2011,11,11,17,29,2.50
2011,11,11,17,30,2.50
2011,11,11,17,31,2.40
2011,11,11,17,32,2.40
2011,11,11,17,33,2.40
2011,11,11,17,34,2.40
2011,11,11,17,35,2.40
2011,11,11,17,36,2.40
2011,11,11,17,37,2.40
2011,11,11,17,38,2.40
2011,11,11,17,39,2.40
2011,11,11,17,40,2.40
2011,11,11,17,41,2.40
2011,11,11,17,42,2.40
2011,11,11,17,43,2.40
2011,11,11,17,44,2.50
2011,11,11,17,45,2.50
2011,11,11,17,46,2.50
2011,11,11,17,47,2.50
2011,11,11,17,48,2.60
2011,11,11,17,49,2.60
2011,11,11,17,50,2.60
2011,11,11,17,51,2.60
2011,11,11,17,52,2.60
2011,11,11,17,53,2.60
2011,11,11,17,54,2.60
2011,11,11,17,55,2.60
2011,11,11,17,56,2.60
2011,11,11,17,57,2.60
2011,11,11,17,58,2.60
2011,11,11,17,59,2.60
2011,11,11,18,00,2.60
2011,11,11,18,01,2.60
2011,11,11,18,02,2.60